Regional Weather Roundup
Issued by NWS Portland, ME

Home | Current Version | Previous Version | Text Only | Print | Product List | Glossary On
Versions: 1 2 3 4 5 6 7 8 9 10 11 12 13 14 15 16 17 18 19 20 21 22 23 24 25 26 27 28 29 30 31 32 33 34 35 36 37 38 39 40 41 42 43 44 45 46 47 48 49 50
849
ASUS41 KGYX 241010
RWRGYX
WEATHER ROUNDUP FOR MAINE AND NEW HAMPSHIRE
NATIONAL WEATHER SERVICE GRAY ME
600 AM EDT FRI MAR 24 2017

MEZ002-005-006-010-012-015-018-020-021-024-026-027-029-241100-
MAINE

CITY           SKY/WX    TMP DP  RH WIND       PRES   REMARKS
PORTLAND       CLOUDY    25   5  42 SW3       30.49S
SANFORD        PTCLDY    18   9  68 CALM      30.47S
BAR HARBOR     CLOUDY    15   3  59 CALM      30.49R
WISCASSET      CLOUDY    18  10  71 CALM      30.49F
ROCKLAND       PTCLDY    17  10  74 CALM      30.49S
FRYEBURG       MOCLDY    20   6  55 CALM      30.44R
LEWISTONAUBURN CLOUDY    17   6  62 SE7       30.46R
AUGUSTA        CLOUDY    20   3  48 CALM      30.45S
WATERVILLE     CLOUDY    17   5  59 S3        30.42S
BANGOR         CLOUDY    17   5  59 S5        30.47R
GREENVILLE       N/A     15   1  53 SE3       30.31S
MILLINOCKET    CLOUDY    12   0  58 CALM      30.43R
HOULTON        PTCLDY     2  -6  69 S5        30.38R
PRESQUE ISLE   CLOUDY     1  -6  72 CALM      30.37F
FRENCHVILLE    CLOUDY     7 -10  46 S8        30.29S
CARIBOU        CLOUDY     6  -6  57 SW6       30.34S
$$

NHZ002-005-008-009-011-012-014-241100-
NEW HAMPSHIRE

CITY           SKY/WX    TMP DP  RH WIND       PRES   REMARKS
PORTSMOUTH     MOCLDY    26   6  43 CALM      30.47R
ROCHESTER      MOCLDY    24   6  46 CALM      30.45R
NASHUA         CLOUDY    23  13  65 E6        30.47R
MANCHESTER     CLOUDY    26  10  50 CALM      30.46R
CONCORD        CLOUDY    26  12  55 CALM      30.46R
LACONIA        CLOUDY    24  13  62 E3        30.43R
PLYMOUTH       MOCLDY    23  12  64 CALM      30.42F
BERLIN         CLOUDY    13   3  64 CALM      30.36S
WHITEFIELD     CLOUDY    15   5  64 CALM      30.36F
JAFFREY        CLOUDY    24  10  55 CALM      30.41R
KEENE          CLOUDY    25  17  72 CALM      30.44R
LEBANON        CLOUDY    24  12  60 CALM      30.40S
MT WASHINGTON  CLOUDY     9 -13  37 W39G46      N/A  WCI -17
$$

VTZ005-007-008-241100-
VERMONT

CITY           SKY/WX    TMP DP  RH WIND       PRES   REMARKS
ST JOHNSBURY     N/A     19   9  65 MISG      30.37F
MONTPELIER     CLOUDY    24   6  46 CALM      30.38S
BURLINGTON     CLOUDY    31   9  39 S15G26    30.32F
$$

MAZ007-012-024-CTZ003-RIZ002-NYZ038-NYZ072-241100-
SOUTHERN NEW ENGLAND AND NY

CITY           SKY/WX    TMP DP  RH WIND       PRES   REMARKS
BOSTON         MOCLDY    28  18  66 S8        30.49F
WORCESTER      CLOUDY    25   4  40 SW8       30.42S
NANTUCKET      PTCLDY    23  14  68 E3        30.52S
PROVIDENCE     CLOUDY    25   9  50 CALM      30.50S
HARTFORD       CLOUDY    29  13  51 S7        30.47S
ALBANY         CLOUDY    31   9  39 S8        30.40S
NEW YORK CITY  CLOUDY    38  19  46 SW8       30.49R
$$

ANZ081-ANZ082-ANZ150-NHZ014-MEZ023>029-241100-
COASTAL MARINE OBSERVATIONS

STATION/POSITION TIME  TEMP    WIND        PRES    WAVE
                       AIR SEA DIR/SP/G            HT/PER
                 (UTC) (F)     (DEG/KT/KT) (MB)    (FT/S)
MOUNT DESERT ROC 1000   29                 1032.7R
MATINICUS ROCK   0900   29     230/  5/  7 1032.2R
ISLE OF SHOALS   0900   32     160/  7/  7 1032.3F
JEFFREYS LEDGE   0906      41                N/A     2/ 4
CASHES LEDGE BUO 0950   29 39              1032.6F   2/ 4
GEORGES BANK BUO 0950   35 40              1033.8R   6/ 8
$$

.............KEY..............
   WCI - WIND CHILL
   TC  - TEMPERATURE IN CELSIUS
   VSB - VISIBILITY IN MILES
   HX  - HEAT INDEX
   FAIR- INDICATES FEW OR NO CLOUDS BELOW 12,000 FT, WITH NO
         SIGNIFICANT WEATHER AND/OR OBSTRUCTIONS TO VISIBILITY.






USA.gov is the U.S. government's official web portal to all federal, state and local government web resources and services.